Theta_e
326 320 320 320 318 317 312 308 296 294 286 285 284 284 288 293 293 293 294 293 293 295 296 297 297 298 298 295 296 297 297 293 295 289 291 299 309 311 312 314 315 320 326 330 333 336 337 339 343 342 343 343 343 345 346 346 346 346 345 347 348 350 351 351 350 350 350 349 350 350 350 350 349 349 348 348 347 348 349 348 348 348 348 347 347 347 347 347 348 347 346 346 346 349 350 351 352
322 318 319 319 316 315 309 299 290 284 285 285 287 286 291 290 293 291 291 291 293 296 297 299 299 300 300 299 298 299 298 298 300 300 303 308 308 310 311 312 314 315 320 323 324 328 330 332 337 339 342 343 343 344 345 345 345 346 346 345 346 345 345 347 351 351 350 350 350 350 351 351 349 348 348 349 349 349 349 348 347 349 349 349 348 349 349 350 350 350 349 348 346 348 349 350 350
321 318 317 316 315 310 305 298 294 282 283 283 282 286 290 292 290 291 291 293 295 296 296 295 297 295 294 296 297 293 292 301 302 302 303 306 305 306 310 312 312 312 314 316 317 320 324 329 333 335 338 340 340 342 344 344 346 345 345 345 345 345 344 345 345 346 350 351 350 351 351 351 348 346 347 349 349 349 349 348 348 349 348 349 349 349 349 350 349 350 350 350 349 349 349 350 351
316 318 314 312 309 301 297 292 285 284 283 280 283 288 290 289 291 291 292 292 294 293 295 296 295 297 295 293 294 296 295 296 301 303 301 302 304 308 309 310 310 308 309 312 313 316 321 328 331 333 334 336 337 338 339 340 341 343 343 344 344 344 344 345 344 345 345 346 349 350 350 350 350 348 350 349 350 347 345 346 349 351 349 349 348 349 349 349 349 349 349 349 349 349 350 350 351
315 318 313 308 302 299 294 290 284 281 284 283 284 286 289 289 291 290 294 294 293 292 294 295 292 297 298 296 296 292 293 298 301 303 304 305 307 306 307 309 306 305 306 307 309 312 317 327 328 331 333 334 334 335 335 336 337 338 339 340 340 341 342 343 344 344 344 345 345 345 346 349 350 350 350 349 349 347 346 346 346 347 348 350 350 350 349 349 348 348 348 349 348 348 349 350 350
310 311 312 311 305 302 291 289 288 286 286 286 286 289 289 289 291 290 295 293 293 294 294 293 292 293 293 295 297 293 299 295 301 302 303 302 306 306 305 307 303 303 304 305 306 308 314 323 326 327 329 330 332 332 332 334 335 335 336 336 337 338 339 340 342 343 344 344 344 344 344 346 346 348 347 347 348 348 348 347 347 347 348 349 350 350 350 349 348 348 348 348 348 348 349 349 350
312 305 302 302 301 296 290 284 284 283 292 288 288 289 291 290 291 291 293 293 295 297 296 295 297 296 293 295 296 298 300 302 300 302 305 305 305 305 304 302 302 302 302 303 304 306 311 320 323 324 325 326 328 328 329 330 331 331 331 333 334 336 337 338 338 339 340 341 341 343 342 344 344 345 345 345 344 346 349 349 348 348 347 347 350 350 350 348 348 348 347 347 349 349 348 350 350
310 306 301 295 291 289 286 284 286 284 290 289 290 291 291 290 290 292 292 292 292 292 295 295 295 292 291 296 291 297 299 299 303 303 303 301 303 304 304 301 300 300 301 302 303 305 313 317 320 321 322 323 323 324 325 325 326 326 327 328 330 331 333 334 335 337 337 339 340 341 341 342 342 342 342 342 343 344 344 347 348 347 347 347 348 348 348 349 349 348 345 346 346 348 349 350 350
306 304 299 295 289 287 285 286 289 288 289 292 292 293 303 290 291 291 290 292 292 292 294 294 294 290 291 292 292 296 297 299 299 304 302 301 301 302 304 302 300 300 301 301 302 303 304 313 316 318 319 320 321 321 323 324 323 323 323 324 324 325 327 328 330 332 333 334 335 337 339 339 340 341 342 343 341 342 344 344 345 347 348 349 349 348 348 349 348 348 347 348 348 346 347 349 350
303 301 294 293 287 287 283 286 286 289 291 292 292 295 293 292 291 290 292 292 292 291 293 293 292 291 292 290 291 294 295 298 298 299 299 299 300 301 301 302 302 300 299 300 301 301 304 310 313 315 316 317 318 318 319 320 320 320 321 321 322 323 324 324 326 326 327 330 332 334 335 336 337 338 340 341 341 340 341 342 344 344 345 347 348 349 349 349 349 348 347 347 346 346 347 348 349
299 295 295 289 284 283 283 286 284 288 291 289 291 291 291 292 290 290 291 292 292 291 293 294 293 292 290 290 291 296 297 295 295 295 297 298 299 299 298 300 301 301 299 299 300 300 300 302 309 311 313 313 314 315 316 317 318 319 319 319 320 320 321 321 322 323 324 327 328 328 328 331 333 336 337 339 340 340 340 340 341 343 343 343 344 346 347 348 349 348 348 347 348 347 346 347 348
296 293 290 285 285 284 283 285 287 288 288 288 294 293 293 293 292 291 290 292 291 291 292 294 292 292 290 289 290 294 293 293 293 295 297 297 295 298 298 297 300 300 300 298 298 298 300 300 300 306 309 310 311 311 312 314 314 315 316 317 318 318 318 319 320 321 323 324 322 321 324 327 330 333 336 338 339 339 339 340 340 340 342 343 343 345 345 346 347 346 346 347 346 346 346 347 347
294 290 287 286 289 285 285 285 287 290 285 289 292 295 292 292 292 291 289 289 289 290 292 292 296 292 288 288 291 292 291 294 295 294 296 294 295 295 297 296 299 299 300 300 297 297 298 299 299 300 304 307 307 307 309 310 311 312 313 313 314 314 315 316 317 317 319 320 318 319 321 323 325 327 331 333 335 337 338 338 339 339 340 340 340 343 344 344 345 345 346 346 345 346 347 347 347
294 291 288 289 286 284 285 286 285 288 287 291 290 292 292 292 292 289 291 291 290 289 294 293 295 292 289 288 290 290 290 293 293 294 293 294 295 294 296 295 297 297 298 298 296 296 296 298 299 298 299 299 299 302 305 308 310 310 310 310 311 312 312 313 314 314 315 314 314 316 318 318 319 322 323 327 329 330 331 333 335 337 339 339 341 340 342 343 343 344 345 345 346 346 346 346 346
298 293 287 286 284 285 285 287 287 284 289 291 294 292 290 292 291 290 290 288 290 292 290 293 294 293 288 287 287 289 290 293 294 294 294 294 295 293 294 295 295 296 295 296 296 295 295 296 297 297 298 298 298 298 298 300 307 308 308 308 309 309 310 310 311 310 311 311 311 312 315 314 313 314 315 317 320 323 325 327 329 332 335 338 338 339 340 341 339 342 342 344 344 344 345 345 345
297 294 288 288 288 284 287 286 284 286 289 290 293 290 291 291 291 291 291 291 290 290 290 290 290 291 291 289 288 290 291 293 293 293 292 292 293 293 292 292 292 293 294 294 295 295 294 294 296 297 297 297 297 298 297 297 303 306 306 306 306 307 307 308 308 308 308 307 308 309 311 308 308 307 311 310 315 318 321 322 324 328 332 335 336 337 338 339 339 339 339 342 343 342 343 343 342
297 293 288 283 288 286 288 288 286 288 287 289 290 292 290 289 292 289 290 289 288 287 287 287 288 289 288 289 290 290 290 296 300 293 292 291 289 289 290 290 292 291 294 293 293 294 294 293 294 296 296 296 297 298 298 297 300 304 301 303 304 305 306 306 305 305 306 304 304 305 307 303 302 302 303 305 310 310 313 314 317 320 323 324 326 331 334 336 337 337 337 337 340 340 338 336 336
294 289 284 286 287 286 289 288 288 288 290 290 292 289 290 288 290 290 290 288 287 286 286 288 288 287 288 289 290 290 291 290 291 290 289 288 289 288 288 289 289 289 290 291 292 293 293 292 293 295 295 295 296 298 298 298 298 300 296 296 298 299 302 304 299 299 303 298 303 301 303 301 300 300 301 307 304 306 307 311 312 315 316 317 318 321 325 331 333 336 336 336 336 337 335 337 335
290 286 284 288 285 290 289 288 289 290 291 290 289 288 290 289 290 290 287 286 286 285 285 285 285 286 288 288 289 289 289 288 289 288 287 287 287 287 287 288 288 289 289 290 291 292 292 292 292 293 294 294 295 295 297 296 296 295 295 296 297 299 299 298 296 297 297 297 298 299 301 299 299 299 300 304 304 306 304 308 309 310 311 312 315 319 324 328 329 331 334 335 335 333 333 336 335
293 288 285 285 289 290 289 289 290 290 292 291 291 288 290 290 290 291 289 286 286 285 284 284 284 285 285 287 288 287 287 287 288 287 287 287 287 286 286 287 287 288 288 289 291 293 291 292 291 292 294 294 294 294 296 294 295 295 295 295 295 295 295 296 295 296 296 296 297 299 299 299 298 298 303 304 303 299 300 304 307 307 308 309 313 317 320 319 320 323 326 330 330 329 332 332 333
294 288 285 291 290 290 293 290 290 290 291 290 288 289 290 290 289 290 287 287 285 285 287 287 285 285 285 285 286 286 285 285 285 286 286 287 287 288 286 286 287 287 288 290 290 290 290 291 291 291 293 293 294 294 294 294 296 293 294 294 295 294 294 294 294 295 295 296 296 298 299 298 297 297 298 298 298 298 298 299 299 300 300 303 311 313 313 313 316 319 321 324 328 329 330 331 332
292 293 289 290 289 291 292 290 290 290 290 290 287 290 290 289 289 288 289 289 287 288 289 287 288 287 286 285 285 284 283 284 283 284 285 286 286 287 286 285 285 287 289 288 288 288 289 290 290 290 292 292 292 292 293 295 295 292 293 294 294 293 295 293 293 294 294 295 296 298 298 297 296 297 297 297 297 297 297 297 298 298 299 302 309 309 309 311 314 316 318 320 322 326 330 330 331
292 287 289 289 288 291 292 291 291 288 289 289 287 290 289 289 287 287 289 289 286 287 288 287 288 287 286 285 284 284 284 284 284 284 285 285 285 286 286 286 286 286 286 287 287 287 290 289 289 289 290 291 292 292 293 292 292 292 292 294 294 292 293 292 293 293 294 294 295 297 297 296 296 296 296 296 296 296 296 296 297 297 298 302 306 305 307 312 313 314 314 313 315 317 319 327 330
292 290 289 293 289 293 291 292 290 287 288 289 288 289 290 287 289 287 287 285 285 286 287 287 286 286 285 284 284 284 284 284 284 284 284 285 286 287 286 287 286 285 286 286 287 287 289 288 289 288 289 291 291 291 291 291 291 292 293 294 292 294 293 292 292 293 294 293 295 295 296 295 295 295 295 295 295 296 296 296 296 296 297 301 303 304 307 311 310 310 309 308 310 312 314 317 324
291 290 291 292 291 290 291 289 289 287 287 288 289 290 288 288 288 286 286 285 285 285 286 286 285 284 283 283 283 284 284 284 284 284 286 285 285 287 286 286 286 285 284 285 286 286 287 289 289 288 288 289 290 291 291 291 291 291 291 291 290 297 292 292 292 292 292 293 294 294 295 294 295 295 294 295 295 295 296 296 296 295 297 299 300 303 307 308 307 306 305 305 307 308 311 314 317
292 292 291 290 291 291 289 289 287 288 289 288 290 287 286 287 288 286 284 284 284 285 285 284 283 283 282 283 283 283 283 284 284 284 284 285 286 285 284 284 286 284 285 285 286 286 286 288 288 287 287 289 291 291 291 290 290 290 290 290 290 293 291 292 292 291 291 291 292 292 293 294 294 294 294 294 294 294 295 295 295 295 296 297 299 301 305 306 305 304 303 303 305 306 308 311 314
291 291 290 290 290 289 289 289 288 287 289 286 289 287 286 287 289 287 284 284 284 284 283 282 282 283 283 283 283 283 283 283 284 283 285 285 284 284 285 283 283 284 285 285 285 285 288 287 286 287 287 291 291 289 290 290 290 289 291 290 290 290 291 292 291 291 291 291 292 292 293 293 294 294 294 294 294 294 294 294 294 295 295 296 298 300 303 303 303 302 302 303 303 304 306 309 312
292 290 289 289 287 288 288 289 289 288 292 285 287 287 287 286 287 287 285 285 284 283 282 282 281 282 282 282 282 283 283 283 282 283 283 283 283 282 283 282 283 283 284 284 285 286 286 285 285 287 288 288 290 288 290 290 290 290 291 290 289 291 292 291 290 291 291 291 292 292 292 293 293 293 293 293 294 294 293 293 293 294 295 296 298 299 301 302 301 301 302 303 303 304 305 306 309
290 289 288 286 287 288 289 290 289 289 291 287 286 288 286 286 286 286 285 284 284 283 282 281 281 281 282 282 282 282 282 282 282 282 282 282 282 283 282 282 283 283 283 284 284 285 284 285 287 287 287 287 287 288 289 289 289 289 289 289 290 292 290 290 290 290 290 290 291 291 291 292 293 292 293 293 294 293 293 293 293 294 294 296 298 299 300 300 300 300 300 302 302 303 303 303 306
291 287 286 288 285 285 291 288 288 289 291 287 289 285 284 287 289 283 285 284 282 281 281 282 281 281 281 281 282 282 281 282 281 282 281 282 282 282 282 282 284 283 283 284 284 284 286 288 289 290 289 287 289 288 290 288 288 289 290 288 290 290 289 289 290 289 290 290 290 290 290 291 292 292 292 292 292 292 292 292 293 293 294 295 297 299 299 299 299 299 299 300 301 301 301 302 303
289 287 284 282 283 284 289 288 289 289 290 287 289 284 289 285 286 284 284 284 282 282 282 281 281 281 281 281 281 282 282 281 282 281 283 283 282 281 281 282 282 282 284 283 283 284 284 285 290 287 289 287 287 287 288 288 289 288 287 288 288 289 290 289 289 289 289 290 290 290 291 291 291 292 292 292 292 292 291 292 292 293 294 295 296 297 298 298 298 298 299 299 299 299 300 301 302
283 287 283 279 284 283 285 288 287 288 289 287 289 284 287 289 288 283 284 283 282 282 282 281 281 281 281 281 281 282 282 282 282 282 283 281 281 280 281 281 281 281 282 282 283 285 283 283 287 285 286 286 286 288 287 287 287 287 287 291 288 288 288 288 288 288 289 289 289 289 289 290 290 290 291 291 290 289 289 289 290 292 293 294 295 296 297 297 298 298 299 299 298 298 299 300 301
280 285 282 281 281 282 284 286 286 287 289 289 288 286 285 286 284 283 283 283 282 282 281 281 281 281 281 281 281 281 281 281 282 282 282 281 281 279 280 280 281 282 282 282 282 282 283 283 285 285 285 285 286 286 287 286 287 286 287 287 288 287 287 287 287 288 288 288 288 288 288 289 289 289 289 289 288 287 288 288 289 290 291 292 293 295 296 297 297 298 298 299 298 298 298 298 299
278 280 282 281 282 282 282 284 284 286 288 286 287 284 287 288 283 283 282 283 281 281 282 281 281 281 281 281 281 281 281 281 281 281 280 280 281 281 280 287 285 282 281 284 282 282 282 283 284 286 287 286 286 286 286 286 286 287 286 286 288 286 286 286 286 286 286 286 286 286 287 288 288 287 287 287 287 287 288 287 288 288 289 289 291 293 294 296 297 298 297 298 298 298 297 297 298
281 279 279 281 279 281 284 282 283 286 288 285 284 285 287 289 286 283 283 283 282 282 283 282 281 281 281 281 281 280 281 280 281 280 280 280 281 281 280 281 281 281 280 279 280 282 282 283 286 284 286 285 285 285 285 285 285 286 285 285 285 285 285 285 285 285 285 285 285 286 287 286 286 286 286 287 286 286 286 287 287 287 288 288 288 290 293 295 296 297 297 297 298 298 298 298 298
282 280 279 279 280 282 281 283 282 285 283 283 283 284 287 288 288 285 283 283 281 282 282 281 281 281 281 281 281 280 280 280 281 280 280 280 280 281 280 280 280 280 279 279 283 281 282 282 283 283 284 284 284 284 285 284 284 284 283 283 283 283 283 285 284 284 284 285 286 286 285 285 285 285 285 285 285 285 285 285 285 286 286 286 286 286 289 292 294 295 296 296 296 297 298 298 299
282 281 281 280 279 281 283 283 284 284 284 284 285 284 285 287 288 289 285 283 281 281 281 281 281 281 281 281 281 280 280 280 281 281 280 280 280 279 280 279 279 279 279 279 279 281 281 282 283 282 283 283 284 283 283 283 282 282 282 282 282 282 283 284 283 284 284 284 285 285 284 284 284 284 284 284 283 284 283 283 284 284 285 285 285 285 286 288 293 295 296 297 296 296 296 297 298
283 282 280 280 279 280 284 284 284 284 284 282 281 282 284 286 288 289 284 282 281 281 282 282 282 281 281 281 280 280 281 280 280 280 280 279 278 279 279 279 283 279 280 280 279 280 281 281 282 282 283 283 283 284 283 283 283 283 282 281 281 281 281 281 281 282 283 285 284 284 283 283 283 283 283 283 283 282 282 282 282 283 284 284 285 285 285 287 290 294 296 295 297 296 295 296 297
281 280 279 279 281 280 283 283 282 283 284 283 284 282 285 287 288 289 284 283 284 284 284 284 283 282 281 281 281 280 280 280 279 280 279 278 278 279 278 278 278 277 277 278 279 280 280 281 281 282 282 282 282 284 283 282 283 283 282 281 281 281 282 283 282 283 283 283 282 282 283 282 282 282 282 282 282 282 281 281 281 283 283 284 284 284 285 285 288 292 295 295 295 296 295 297 296
280 280 280 281 281 281 281 281 281 283 282 282 283 283 284 286 287 288 288 284 284 284 284 284 284 283 282 282 281 281 280 279 279 279 278 278 277 277 277 277 277 278 279 278 279 279 280 282 281 281 282 282 282 283 284 283 283 284 283 282 282 282 281 283 283 282 282 281 281 282 282 282 282 281 281 281 281 281 281 281 282 283 283 284 284 284 284 285 287 291 294 295 295 293 294 294 296
280 281 279 280 281 281 281 281 281 281 281 280 281 283 283 284 284 286 283 281 282 283 281 282 282 282 282 281 281 281 280 279 279 278 278 277 276 276 276 277 277 277 278 278 279 279 281 280 281 281 281 281 282 283 282 282 282 281 281 281 282 281 281 280 280 280 280 281 281 280 280 281 281 281 281 281 281 281 281 281 282 283 283 283 283 283 285 286 288 291 293 294 294 293 293 293 293
277 280 283 284 282 282 281 280 280 279 278 279 279 281 276 277 281 283 283 279 280 281 281 281 282 282 280 280 281 280 280 279 279 278 278 277 277 276 277 276 276 277 277 278 278 280 279 280 280 280 281 281 281 282 282 282 281 280 279 278 278 278 277 278 278 278 278 279 279 280 280 280 280 280 280 280 280 281 281 282 282 281 280 281 282 283 285 288 289 291 292 293 294 295 294 293 291
280 284 281 282 281 281 280 279 281 276 275 279 278 276 278 278 281 283 282 279 281 280 280 281 281 281 280 281 281 280 279 278 277 277 277 276 276 276 276 276 276 276 277 278 278 279 279 280 280 280 280 281 282 281 281 282 279 279 279 278 278 277 277 278 279 279 279 279 280 279 279 279 280 279 279 280 280 280 280 280 280 280 281 281 282 282 283 284 286 288 291 292 293 293 293 291 291
280 281 280 281 282 282 280 280 280 278 278 279 279 279 275 277 281 285 286 281 281 282 281 280 281 281 281 281 281 280 279 278 278 277 277 276 276 276 276 276 276 277 277 277 278 279 279 279 279 279 280 281 281 280 280 280 280 279 278 278 279 278 278 277 278 278 279 280 279 278 278 279 279 279 279 279 279 279 280 279 280 280 280 281 282 281 282 283 284 287 289 291 292 293 292 292 291
280 282 280 281 282 281 279 280 278 277 276 276 276 279 275 274 275 276 277 279 282 282 284 284 281 281 281 281 280 279 279 278 277 277 276 276 276 276 276 276 276 276 277 277 278 278 279 279 279 279 279 279 279 279 281 279 280 280 278 278 277 278 278 279 279 279 278 278 277 278 277 278 278 278 279 278 278 279 280 279 279 279 279 280 281 281 282 283 284 285 286 288 290 291 292 294 293
283 281 280 279 279 279 279 278 278 274 273 276 277 278 273 279 278 279 275 276 278 280 284 285 283 281 281 280 279 279 277 277 276 277 276 276 276 276 276 276 276 276 277 278 279 278 278 278 279 279 278 278 279 279 279 278 278 279 278 277 277 277 277 277 277 277 277 277 276 276 277 277 277 277 278 278 278 278 278 278 279 279 280 280 281 281 281 283 284 285 287 287 288 289 290 292 294
281 281 281 279 278 276 276 275 273 271 270 278 280 277 279 277 279 280 279 280 281 283 282 282 281 281 280 280 279 279 277 276 276 275 275 276 276 275 275 276 276 276 276 277 277 277 277 277 278 278 278 278 279 278 278 278 278 278 277 277 277 276 276 276 276 276 276 276 275 275 276 276 277 276 277 277 277 278 278 278 278 278 280 281 281 280 280 281 283 284 285 285 285 286 289 291 292
281 281 279 281 281 275 271 267 271 269 272 273 274 277 279 273 277 279 281 280 279 282 284 282 281 280 280 279 279 278 277 276 276 275 275 275 275 275 275 275 275 275 275 276 276 277 277 277 277 277 278 278 278 278 278 278 277 277 277 277 276 276 276 276 275 275 275 275 275 275 276 276 276 276 276 276 276 277 277 277 277 277 278 279 279 280 280 281 282 283 284 284 284 286 288 290 292
281 279 276 276 272 270 271 268 269 268 274 274 272 276 275 276 282 280 281 282 282 281 281 283 283 280 279 279 279 277 276 276 275 275 275 274 274 275 275 275 275 275 276 276 276 276 276 276 276 276 277 277 277 277 277 277 277 277 277 277 276 277 276 276 275 275 275 275 275 274 275 274 275 274 275 275 276 276 277 276 276 276 277 277 279 279 279 279 279 281 283 283 284 286 288 290 291
279 280 275 272 270 267 267 268 266 269 273 274 275 275 276 281 282 286 287 288 287 280 280 282 281 280 280 279 278 276 275 275 275 275 274 274 274 274 274 274 274 275 275 276 276 277 276 276 276 276 276 277 277 277 277 276 276 277 276 276 276 276 275 275 275 275 275 275 275 274 274 274 274 274 274 275 276 276 276 277 277 276 277 277 278 279 279 278 279 280 282 283 284 285 288 289 290
280 280 282 280 273 269 270 269 270 275 276 277 274 271 271 271 279 277 279 279 274 274 275 276 279 280 280 279 277 275 275 275 275 274 274 274 274 274 274 274 274 275 275 275 275 275 275 275 276 276 276 276 276 276 276 276 276 276 276 276 276 275 275 275 275 276 275 275 275 274 274 274 274 274 275 275 276 276 276 277 277 276 276 276 277 277 277 278 278 280 281 282 284 285 286 288 289
279 279 279 276 279 278 275 271 269 274 273 275 268 274 274 280 277 277 274 274 274 275 275 277 277 277 276 275 275 275 275 275 274 274 274 274 274 274 274 274 274 274 274 274 275 275 275 275 275 275 275 275 276 276 276 276 275 275 275 275 275 275 276 276 275 275 275 275 274 274 274 274 274 275 275 275 276 276 276 276 276 276 276 276 276 276 277 277 278 279 279 281 283 285 284 285 287
280 280 277 279 281 283 275 273 270 268 268 275 270 277 280 280 283 275 275 275 275 274 274 275 275 275 275 275 275 275 275 274 274 274 274 274 273 273 274 274 274 274 274 274 275 275 275 275 275 275 275 275 275 276 275 275 275 274 274 274 274 274 274 273 273 273 274 274 274 274 274 274 275 275 275 276 276 276 276 276 276 276 276 276 276 276 276 277 278 278 278 281 281 282 283 283 285
280 276 279 280 280 278 275 271 267 267 268 273 270 276 278 279 279 275 276 276 276 276 274 273 274 273 274 275 275 275 274 274 274 274 274 274 274 274 274 274 274 274 274 274 274 275 275 274 274 274 274 274 275 275 274 274 274 274 273 273 273 273 273 273 273 273 274 274 274 274 274 274 274 275 275 276 276 276 275 276 275 275 275 275 275 275 276 277 277 277 278 280 280 281 281 282 284
280 278 281 280 275 274 274 268 269 265 266 268 274 277 281 282 283 277 276 276 278 279 274 272 273 273 274 274 274 274 273 273 273 273 273 273 274 274 274 274 274 273 274 274 274 274 274 274 274 274 274 274 274 274 274 274 274 273 274 273 273 273 273 273 273 274 273 273 273 273 273 274 274 275 275 275 275 275 275 274 274 274 274 274 274 274 275 275 275 276 278 278 279 280 280 281 283
280 281 280 281 279 275 270 275 270 271 271 270 274 278 277 284 281 281 284 281 281 281 274 274 274 275 275 275 274 274 274 274 273 273 274 274 274 274 273 273 273 273 273 273 273 273 273 273 273 274 274 274 273 273 273 272 273 273 272 272 272 272 273 272 273 273 272 272 273 273 273 274 274 275 275 275 275 275 274 274 273 273 273 273 274 274 274 274 275 276 276 276 277 278 278 279 280
278 279 275 276 276 278 277 274 273 272 270 272 272 274 280 283 284 282 284 282 282 281 278 275 275 276 275 275 275 275 274 273 274 274 274 274 274 273 273 272 272 272 273 274 273 272 273 273 273 273 272 272 272 272 272 272 272 272 272 271 271 271 271 272 272 272 272 272 272 273 273 274 274 274 274 274 274 274 274 274 273 273 273 273 273 273 274 274 274 274 275 274 275 275 277 278 280
282 281 279 281 277 274 272 273 275 273 274 270 272 274 282 285 280 285 283 283 281 280 279 277 276 276 275 275 275 275 274 274 273 274 274 273 273 273 272 272 272 272 271 271 272 272 271 272 272 272 271 271 271 271 271 271 271 271 270 270 270 270 271 271 270 270 271 271 271 272 273 273 273 274 274 274 273 273 273 273 272 272 272 272 272 273 273 273 273 273 273 273 274 275 277 278 279
Wind_Speed
3 2 1 1 3 3 2 5 1 2 4 1 1 1 1 1 1 1 1 2 1 2 2 4 3 4 3 6 14 8 3 4 1 3 2 1 6 4 9 9 10 8 9 9 9 8 9 14 19 19 18 18 18 18 18 17 15 15 13 10 13 11 11 10 9 9 9 9 10 10 11 11 13 12 9 12 14 12 12 12 11 11 11 11 11 11 11 11 11 11 11 12 12 10 10 10 10
1 3 3 0 0 1 1 1 3 2 6 3 1 0 1 2 1 3 4 3 1 3 5 13 13 15 16 13 9 4 11 4 2 3 2 2 4 5 9 10 9 9 8 8 8 8 9 11 18 19 20 20 19 18 19 19 18 19 17 16 14 12 13 13 10 9 9 9 9 10 12 14 14 12 11 11 13 14 14 12 12 11 13 13 12 13 13 13 12 13 12 12 12 11 10 10 10
1 2 2 3 3 4 2 4 1 1 4 0 3 3 2 1 1 3 3 3 7 10 8 7 7 4 2 2 10 5 3 4 5 2 3 5 7 8 10 9 7 6 6 6 8 8 8 11 17 18 19 19 19 20 20 19 19 19 19 18 16 16 14 12 14 16 12 9 10 11 12 14 10 15 15 12 11 13 15 14 13 12 13 13 14 14 14 14 14 14 14 14 13 12 11 11 10
2 4 2 3 0 3 1 4 5 6 2 3 1 2 0 2 4 5 3 1 1 4 2 3 6 4 4 11 3 3 4 3 1 1 2 5 1 7 8 7 7 4 6 7 8 9 9 12 18 19 19 19 20 19 20 20 20 19 20 20 20 18 16 15 13 13 16 15 14 12 12 12 11 13 14 12 11 13 16 15 14 12 13 14 14 14 15 15 15 15 16 15 14 13 11 11 12
3 1 3 3 3 1 2 1 5 3 1 4 3 3 3 4 4 3 1 1 2 3 1 4 6 2 4 5 1 2 1 2 4 5 2 1 4 4 5 4 4 6 8 8 8 9 9 17 18 19 20 20 20 21 21 21 20 20 20 20 20 19 19 19 17 15 17 16 15 15 15 16 14 12 13 13 13 13 11 13 15 17 13 13 14 14 15 16 16 16 16 17 16 15 12 10 11
5 3 3 1 1 2 5 2 1 1 3 5 2 2 2 4 4 4 1 5 3 5 4 4 5 4 3 3 2 2 2 3 0 1 0 3 4 5 4 3 5 9 7 7 8 8 10 17 19 20 21 21 21 22 22 22 22 22 22 21 21 20 20 19 19 19 19 18 18 18 16 15 16 17 17 15 14 12 11 12 14 16 16 13 12 13 14 15 17 17 17 18 17 16 13 13 12
0 4 4 3 2 4 4 4 2 2 0 5 1 1 3 3 6 4 4 2 3 9 3 5 11 10 8 1 3 1 0 1 2 0 1 2 4 4 4 4 6 9 8 8 7 9 13 19 20 21 21 21 22 22 23 23 23 23 23 23 23 22 21 21 20 20 19 19 19 19 18 17 17 16 14 13 15 18 14 12 12 13 14 15 13 14 15 16 17 17 18 18 19 17 15 12 13
2 1 1 1 1 3 3 2 2 3 1 3 1 1 2 3 3 3 1 2 1 2 2 5 1 6 1 2 4 0 5 3 1 2 3 3 3 3 5 5 8 8 8 7 7 8 12 19 20 21 21 22 22 23 23 24 24 24 24 24 24 24 23 23 23 21 20 20 20 20 20 20 19 17 16 16 16 14 17 18 16 13 14 15 15 15 15 15 17 18 18 19 19 16 14 13 12
3 4 0 4 3 3 2 1 0 1 3 1 0 4 3 3 3 4 3 1 3 3 3 4 3 4 2 5 3 1 1 5 3 1 1 2 3 4 5 7 7 7 7 7 7 7 8 17 19 21 21 22 23 23 23 23 23 23 24 24 24 24 24 24 23 23 22 22 21 21 20 21 20 20 19 17 16 16 16 17 18 17 15 14 14 14 14 15 17 19 18 17 18 18 13 14 14
2 1 1 2 4 4 2 1 3 1 0 1 0 0 1 1 1 3 7 3 2 4 2 3 2 7 7 6 3 1 1 4 4 1 4 5 5 4 5 6 5 5 6 7 7 7 7 13 18 19 20 21 22 23 24 23 23 23 23 23 23 24 24 23 24 24 24 23 23 22 23 22 21 21 20 20 20 19 18 19 18 18 18 17 16 15 14 14 16 18 19 19 17 15 15 13 13
1 5 2 3 4 3 2 3 2 1 0 3 3 4 3 1 5 3 1 5 1 3 4 4 7 11 4 1 1 1 1 3 4 3 5 5 3 3 4 5 4 4 6 6 6 6 7 7 15 17 18 18 20 22 23 23 24 24 23 23 23 23 23 24 24 24 24 23 24 24 24 23 22 22 21 20 21 21 21 20 20 18 16 16 19 20 18 17 16 16 18 18 17 14 13 14 14
1 1 2 3 2 3 4 5 1 2 4 2 1 1 1 3 4 5 5 8 2 4 2 2 6 5 5 2 1 0 2 3 2 3 3 3 2 3 4 4 4 5 4 5 5 6 6 6 7 11 15 15 17 19 20 22 23 23 24 24 24 24 23 23 23 24 24 23 24 25 24 24 23 24 22 21 20 21 21 22 22 22 22 20 18 20 21 19 19 20 19 17 15 15 16 15 13
3 1 6 6 1 1 2 5 4 0 2 2 2 1 0 2 2 8 3 4 1 4 1 2 8 3 3 3 1 1 1 1 3 2 2 2 2 2 3 3 3 4 5 5 6 7 6 6 7 7 9 13 13 16 18 20 22 22 23 23 24 24 24 23 23 23 23 24 25 25 24 23 23 23 24 24 23 22 21 22 22 23 23 22 24 22 21 21 21 20 18 15 15 15 15 15 15
3 4 2 1 1 4 4 2 1 2 1 2 2 1 2 1 0 3 8 6 1 2 0 2 5 3 2 3 1 2 3 2 2 2 2 2 1 2 4 2 4 5 5 6 8 6 7 7 6 7 7 8 9 10 13 18 20 21 22 22 23 23 24 24 24 23 22 22 24 24 23 22 23 23 24 25 26 26 25 24 23 23 24 23 23 23 24 22 21 21 17 16 16 15 15 16 17
1 2 5 5 1 1 1 4 7 3 3 1 0 1 2 2 1 3 3 6 3 0 5 3 1 1 6 9 4 5 3 1 1 2 2 2 1 3 4 3 4 5 6 7 6 8 8 7 7 6 7 8 8 8 7 9 16 17 19 20 21 22 22 23 23 23 22 22 23 21 19 19 20 21 22 22 24 24 24 22 24 26 25 25 24 24 23 24 23 20 19 18 17 16 16 17 17
4 5 4 2 1 3 1 1 1 3 2 2 1 5 6 2 2 1 2 2 2 3 1 2 4 1 1 7 3 6 4 1 1 1 1 0 2 3 4 5 5 5 5 6 7 7 6 7 7 7 8 9 7 7 7 7 11 14 15 16 18 19 20 21 21 20 19 19 20 19 16 15 15 14 20 16 20 22 22 21 25 27 27 26 26 25 24 24 25 24 23 20 17 18 18 18 18
2 3 2 3 1 1 2 2 5 3 2 2 1 1 1 1 1 2 2 4 7 2 3 2 1 2 2 2 5 5 3 0 1 0 2 2 3 5 5 6 5 4 4 5 6 7 6 7 9 8 8 9 8 8 7 7 8 11 9 11 14 16 17 17 17 14 13 13 15 15 14 13 12 11 12 13 16 15 19 21 25 26 27 28 29 28 27 27 27 25 23 25 21 19 19 19 18
2 2 5 2 2 3 4 4 8 1 4 3 1 2 7 1 2 2 2 10 6 4 5 1 5 5 2 1 4 3 2 1 0 2 3 5 4 5 6 5 5 6 5 6 6 7 7 8 8 8 7 8 8 7 6 6 7 8 8 7 7 9 10 11 9 10 10 10 13 11 9 9 9 10 11 11 11 13 14 21 21 24 25 25 26 27 27 27 27 24 24 24 23 22 21 14 12
3 2 3 1 4 1 4 2 6 3 2 4 2 3 6 5 9 4 4 0 2 5 3 3 3 3 3 3 2 2 1 1 1 3 6 6 6 6 5 4 5 5 7 7 6 7 6 6 6 7 7 7 7 7 6 6 7 6 7 7 6 8 8 7 8 9 8 9 9 9 9 9 9 8 9 12 12 15 14 18 21 23 23 23 24 25 24 25 26 27 26 23 22 22 17 12 9
1 2 1 1 7 2 4 3 4 5 2 4 2 3 2 2 4 2 3 7 2 7 8 0 2 5 4 1 1 0 1 1 2 5 6 5 4 3 4 5 6 6 5 6 6 6 7 8 8 7 7 7 7 6 6 6 6 7 6 6 6 7 7 7 7 7 7 9 9 8 8 8 9 9 10 13 12 11 11 14 16 17 18 18 22 16 21 20 26 24 24 23 15 10 10 12 10
0 2 2 2 4 4 2 4 5 5 5 3 4 2 3 2 3 4 6 5 5 6 9 11 16 12 9 5 4 3 3 3 4 4 5 4 2 2 1 1 1 3 3 4 5 6 5 5 6 7 7 6 7 7 6 7 6 6 6 6 6 6 6 6 7 7 8 8 8 7 8 8 8 9 9 9 8 9 10 10 10 10 11 12 14 12 12 13 13 13 13 15 11 11 10 11 11
1 0 2 3 2 1 3 5 2 3 0 3 2 6 4 2 1 4 12 8 8 9 11 7 10 13 13 10 7 4 4 5 4 5 4 3 3 1 1 2 2 1 2 4 4 4 5 4 4 5 5 5 5 6 5 6 6 6 7 7 6 6 6 6 5 6 7 8 7 8 8 8 8 8 9 10 10 9 9 9 9 9 10 11 10 10 10 11 11 10 12 13 13 13 13 11 11
2 2 1 2 3 2 1 1 4 4 3 4 3 3 5 2 2 3 9 7 2 6 3 6 10 9 7 6 7 6 5 6 5 5 4 4 2 1 0 1 1 3 4 3 3 3 4 4 4 4 4 4 5 4 5 4 5 5 5 6 5 6 6 6 7 7 7 6 7 7 8 9 9 8 8 9 10 9 9 8 8 9 9 9 9 10 11 10 9 10 11 11 12 13 15 14 12
3 1 0 1 2 1 4 4 4 5 8 6 4 4 4 5 3 2 5 1 2 3 7 9 9 7 6 8 7 8 7 7 6 5 4 3 2 0 1 1 1 1 3 4 4 4 4 5 4 4 4 4 5 5 4 5 5 5 6 5 5 5 6 6 6 7 7 8 9 8 7 6 7 9 9 9 9 8 9 9 8 8 8 8 8 8 10 9 9 9 11 12 12 12 13 14 14
2 1 0 0 0 2 1 2 1 3 4 1 5 5 1 5 2 5 6 1 1 3 8 10 9 7 5 6 7 6 5 4 4 4 1 1 1 1 1 1 1 2 3 3 4 4 4 4 4 5 4 5 5 5 4 5 5 5 4 4 5 4 4 5 5 5 6 6 6 8 8 9 8 7 8 9 8 9 9 9 9 9 8 8 8 8 8 9 9 9 9 10 11 11 11 12 13
0 1 1 0 1 1 3 0 3 5 2 1 2 1 2 3 2 4 5 4 4 4 7 8 7 7 7 7 7 7 6 6 5 3 4 2 1 0 2 2 2 2 2 3 4 4 4 4 5 4 4 5 5 4 4 4 5 4 4 3 4 3 3 4 3 4 5 6 6 6 6 5 7 8 8 8 8 9 9 10 9 9 10 8 8 9 8 8 9 9 9 10 11 11 11 12 12
2 2 2 3 4 3 1 5 5 5 1 2 2 0 1 3 2 8 3 5 4 7 7 4 7 9 7 6 6 5 7 6 7 3 1 0 1 1 0 1 0 2 2 3 3 3 3 4 4 4 3 4 3 3 3 4 4 4 4 5 5 5 5 4 4 5 4 5 6 7 6 6 6 7 8 9 8 8 9 9 10 10 10 9 9 9 8 8 8 8 9 10 10 11 11 11 11
1 1 4 2 5 2 2 0 1 2 1 1 3 0 1 3 1 9 9 8 7 11 7 6 5 6 7 6 6 5 5 5 3 3 5 3 3 4 2 2 1 2 2 2 3 3 3 3 3 3 3 3 3 3 3 4 4 4 5 5 5 5 4 4 5 5 5 6 7 7 8 8 7 7 8 8 9 9 9 9 9 9 10 10 9 9 10 9 9 8 8 9 9 10 11 10 10
0 3 4 7 7 3 2 0 1 2 2 3 2 0 2 1 8 3 8 9 8 8 9 7 7 6 6 5 5 4 6 4 3 4 4 4 3 4 3 4 3 2 3 3 3 2 2 3 2 4 3 4 4 4 4 4 4 3 4 4 4 4 5 4 5 5 5 4 4 5 5 6 6 7 8 9 10 9 10 10 9 9 9 10 11 12 12 10 9 8 8 8 9 9 10 11 10
0 4 1 6 7 4 1 1 1 3 1 5 1 8 7 10 11 1 8 11 7 7 9 8 7 7 6 6 6 6 4 3 4 6 5 4 4 4 3 3 3 3 2 2 2 2 3 2 2 2 3 4 4 4 3 4 3 4 4 3 3 4 4 5 5 6 6 7 6 5 5 6 6 7 7 8 8 9 9 9 10 10 9 10 10 10 11 10 10 10 10 8 8 9 10 10 10
0 1 4 1 6 3 1 1 0 2 0 4 1 4 14 5 7 4 7 11 15 14 11 10 8 7 7 7 7 6 6 5 6 5 4 4 4 3 4 2 2 3 2 2 2 3 3 3 2 2 3 4 3 4 3 3 3 4 4 3 4 4 4 5 5 5 6 7 6 6 7 8 8 8 8 8 8 8 10 11 11 10 10 10 10 10 10 11 11 10 9 10 9 8 8 9 9
2 2 3 3 1 6 8 4 5 4 1 1 3 7 14 11 7 8 9 9 10 13 11 11 10 9 8 8 8 7 7 6 5 4 4 4 3 4 4 3 2 2 2 2 3 3 3 3 3 2 3 4 3 3 3 3 3 3 2 3 3 4 5 5 6 6 6 6 8 8 9 10 10 9 9 9 10 10 11 11 11 12 13 11 10 10 10 10 10 12 10 8 11 11 9 10 7
5 2 4 3 0 6 10 2 1 2 1 0 6 8 8 7 3 5 6 11 11 10 9 11 11 10 9 9 8 7 6 6 5 5 4 4 4 3 4 3 2 2 2 2 3 3 3 4 3 3 3 3 3 3 3 3 3 2 1 4 4 4 6 6 6 6 6 7 7 7 9 9 9 11 11 11 11 11 10 10 10 11 12 13 13 11 10 9 10 10 12 10 8 11 11 11 9
2 2 2 2 3 2 4 6 2 1 2 2 3 4 13 9 2 4 5 10 10 11 12 12 11 10 10 8 8 8 7 8 9 7 6 5 4 4 3 3 1 1 1 2 3 3 3 3 3 3 3 3 3 3 3 3 3 2 4 6 5 6 6 5 5 5 5 6 6 7 8 9 10 11 12 12 11 10 10 10 11 11 11 12 12 12 12 10 10 10 11 11 10 10 10 10 11
2 3 4 7 1 5 9 4 2 1 1 5 2 7 17 17 6 7 10 9 11 15 15 14 12 11 10 9 9 8 8 9 9 7 6 5 4 4 3 1 0 1 1 2 3 3 3 3 3 3 2 3 3 3 3 3 2 3 4 5 4 4 4 3 4 4 5 6 6 7 8 9 10 11 12 12 11 11 11 10 11 10 10 11 13 14 12 11 11 11 11 12 12 11 10 10 10
3 4 5 3 5 6 5 5 3 1 5 6 7 11 15 16 12 6 8 11 14 15 9 5 8 9 9 10 9 9 9 10 7 6 5 4 3 4 2 0 0 1 2 2 3 3 3 3 3 3 2 3 3 3 3 2 3 6 6 4 5 5 4 4 3 4 5 6 7 8 9 9 9 10 11 11 12 12 12 13 13 13 12 12 13 15 14 12 13 13 13 12 13 13 10 9 9
1 1 1 8 5 9 6 4 3 1 1 10 11 10 13 18 16 13 10 8 10 11 12 12 10 11 12 12 12 11 10 11 7 7 5 5 4 3 2 0 0 2 2 2 3 3 3 3 2 2 2 3 2 3 2 4 6 6 4 5 6 6 6 5 5 6 6 6 6 7 8 8 9 10 11 12 12 13 13 12 12 11 11 11 12 13 16 18 16 13 13 11 12 12 12 9 7
2 2 3 8 3 9 8 4 1 2 2 5 2 5 12 16 16 14 4 8 15 16 16 15 14 14 13 14 13 12 9 2 4 5 4 3 4 3 1 0 0 0 2 2 3 4 4 3 2 3 3 2 2 2 2 3 3 2 2 3 2 4 5 4 5 5 5 4 5 7 7 8 9 10 11 11 11 10 12 12 11 12 10 10 11 12 15 17 18 14 12 12 10 12 11 9 7
1 4 3 3 8 6 11 3 3 0 1 10 8 9 14 16 16 17 10 15 14 16 18 20 17 16 14 13 13 11 7 8 6 8 6 5 4 3 1 1 2 3 4 4 4 4 3 2 3 3 3 2 2 2 3 3 2 2 2 3 3 4 2 2 3 5 4 4 3 4 5 6 8 9 10 11 10 10 11 12 12 10 10 10 11 12 13 16 15 15 13 12 12 10 11 8 7
3 1 1 8 3 4 8 2 3 1 1 8 8 15 15 12 15 24 13 13 10 10 14 13 10 16 18 17 16 15 14 12 12 11 8 6 4 3 1 1 3 2 4 4 4 3 3 3 3 3 3 3 3 2 2 3 2 3 3 3 3 3 5 4 4 5 4 4 5 4 4 6 9 10 11 11 10 12 13 13 13 11 10 9 10 13 14 15 15 15 13 13 12 13 10 9 6
3 5 5 6 6 7 8 5 5 5 4 1 11 15 11 11 15 14 3 3 5 7 5 9 11 10 7 5 7 10 14 13 11 9 7 5 4 4 4 3 2 3 4 4 3 3 3 4 4 3 3 3 3 3 3 3 3 3 3 3 2 3 2 3 3 4 4 5 7 6 8 7 7 8 9 10 10 12 12 13 12 11 12 11 13 14 14 14 14 14 15 14 13 13 14 10 7
5 7 12 10 7 7 6 4 6 5 4 4 5 13 3 3 7 14 8 2 5 5 8 13 14 11 7 11 13 8 8 8 11 11 10 8 6 4 2 3 4 4 5 4 3 4 4 5 4 3 3 3 3 3 3 3 3 4 5 7 9 7 8 8 9 11 11 9 9 8 7 9 9 9 8 10 10 10 11 11 12 15 14 15 13 14 15 15 15 14 14 14 15 14 13 12 12
1 7 5 7 5 2 3 5 5 5 2 0 4 1 17 5 2 7 7 4 13 3 9 15 11 11 11 14 11 12 12 9 4 4 6 5 5 4 4 4 5 5 5 3 3 4 5 5 4 3 4 4 4 3 3 3 4 3 3 3 3 4 6 5 4 6 7 8 7 8 7 6 7 10 11 10 10 11 13 12 13 13 12 12 12 13 14 16 15 14 14 14 14 12 12 14 14
6 1 4 4 2 2 2 1 2 7 0 3 2 5 11 20 7 10 9 7 12 11 13 14 12 11 15 13 11 11 12 10 9 8 7 6 6 7 7 6 5 6 4 3 4 4 4 5 4 4 4 4 4 3 4 3 4 4 4 4 4 5 6 8 7 7 6 7 9 10 9 8 7 7 10 11 11 13 12 12 12 12 13 12 10 11 12 14 15 14 14 16 16 13 13 14 14
4 1 4 1 0 1 1 0 3 2 6 9 7 3 4 10 3 3 4 5 12 16 19 16 14 15 15 12 11 11 11 10 10 10 9 9 8 7 6 5 5 4 4 4 5 4 4 4 5 4 5 4 5 4 4 4 4 4 4 4 5 5 6 7 7 6 7 7 9 9 9 10 9 8 9 11 12 12 12 13 14 14 13 11 9 11 11 12 16 17 17 15 13 15 15 15 14
1 4 5 4 3 4 1 1 2 5 3 17 5 9 5 22 5 4 4 1 10 13 16 16 11 15 13 11 11 11 8 8 8 10 9 7 7 6 5 4 4 5 5 4 4 3 3 4 5 5 5 5 5 5 4 5 5 4 5 5 7 8 6 7 6 8 8 7 9 9 8 9 9 10 9 9 11 11 12 12 12 14 14 12 10 10 11 11 13 14 14 13 15 17 14 16 17
3 4 1 3 4 4 3 6 2 3 6 13 6 15 10 13 3 8 7 9 10 9 7 7 6 7 9 11 13 12 11 9 9 8 6 7 5 4 3 5 5 4 4 3 3 3 3 3 5 7 6 5 5 6 5 6 5 5 5 6 7 9 9 8 9 9 8 9 9 10 9 9 9 10 10 10 10 10 11 11 11 13 15 16 14 12 12 12 12 12 13 15 17 17 14 16 17
2 1 2 6 3 5 2 4 4 1 10 3 2 9 10 9 5 4 6 2 3 6 10 9 9 9 11 11 11 11 10 9 9 8 7 6 4 4 4 5 4 4 3 3 3 3 3 3 4 7 7 5 5 5 5 6 5 6 5 6 8 8 8 7 9 10 9 10 9 10 9 9 10 9 9 10 9 9 9 10 11 14 15 16 15 13 14 14 14 15 14 14 14 16 16 15 15
3 3 4 1 6 6 6 2 3 6 10 2 2 4 5 17 20 4 7 10 7 8 8 10 8 5 7 8 10 9 8 9 10 8 7 6 6 6 5 5 3 4 4 3 4 3 3 3 4 6 8 5 6 5 5 6 6 6 6 7 7 7 7 7 8 9 8 9 9 10 10 10 10 10 11 11 10 11 10 12 13 13 13 15 17 16 17 17 17 17 16 16 15 15 15 16 15
5 5 4 3 1 0 6 5 3 6 5 3 4 3 11 13 8 14 19 18 13 7 7 8 6 6 9 10 9 9 9 10 9 8 7 7 7 6 5 4 4 4 4 4 4 4 3 3 4 5 8 6 5 5 5 6 6 7 6 7 7 6 7 7 7 8 9 8 8 9 9 9 10 11 12 10 11 11 12 12 14 15 16 17 18 18 16 15 17 18 17 16 16 14 14 17 17
8 2 7 8 7 3 5 2 4 8 9 3 4 3 9 4 4 2 6 5 4 3 6 7 6 6 7 7 7 8 9 8 8 8 8 8 7 6 5 4 4 4 5 4 3 3 3 3 4 6 7 7 6 6 5 6 7 7 7 7 6 6 7 7 7 7 8 9 8 9 9 9 9 11 11 12 12 13 15 14 16 17 16 19 18 17 16 16 17 17 15 16 14 12 14 16 16
1 2 4 4 8 6 6 5 3 6 8 13 4 8 4 8 3 3 2 3 3 3 4 1 2 1 4 7 10 11 11 10 8 8 7 7 6 5 4 4 5 5 5 4 3 3 2 3 4 5 6 7 6 6 6 6 7 7 6 7 7 7 7 7 8 7 8 9 10 10 11 11 11 11 12 13 13 12 14 15 15 16 18 18 18 18 18 17 16 16 16 16 16 10 12 18 17
3 4 5 6 1 4 1 4 1 2 1 17 1 12 11 4 10 9 3 2 6 3 3 1 3 3 5 9 9 11 11 10 9 9 8 7 5 5 6 6 5 4 4 4 4 2 2 4 4 7 7 5 6 6 7 6 7 6 7 6 7 6 7 8 9 11 11 10 10 10 11 13 13 12 12 11 13 12 13 14 15 18 17 18 19 18 18 18 14 14 15 15 13 12 12 15 14
8 2 7 2 2 4 5 4 3 1 4 11 2 14 23 8 15 5 1 6 7 9 6 3 3 4 8 9 10 11 12 9 7 6 7 7 7 6 6 5 5 5 4 3 3 2 2 3 4 6 6 7 7 6 7 6 7 7 7 7 7 7 8 9 9 10 10 10 11 10 11 12 12 12 12 12 13 14 14 15 16 15 17 17 18 18 18 16 15 14 16 14 14 12 13 13 13
2 2 2 3 4 1 1 3 4 1 5 7 7 5 20 15 17 1 5 6 9 12 5 4 6 8 12 9 9 7 6 7 9 9 7 7 6 7 6 6 5 4 3 3 3 2 2 3 3 4 7 7 7 7 6 6 6 7 6 7 8 9 8 9 9 10 10 11 12 12 12 13 14 13 14 14 14 16 12 17 13 18 16 18 17 18 18 18 18 17 15 13 11 11 12 14 13
1 0 1 1 1 2 5 7 4 5 8 3 11 10 19 9 6 6 7 10 10 9 6 11 13 15 12 10 11 12 12 11 9 8 8 8 7 6 6 5 4 3 3 3 3 2 3 3 4 5 6 6 6 6 6 7 7 7 8 8 8 7 8 9 10 10 11 12 13 13 14 15 14 15 13 15 15 14 17 15 17 15 19 17 18 17 18 18 18 16 13 13 14 14 16 15 15
1 1 2 1 1 2 3 1 4 5 4 6 6 14 21 6 8 8 7 8 11 12 13 11 12 14 12 11 12 13 12 10 9 9 8 7 7 5 5 4 3 3 2 2 3 3 3 3 5 5 6 7 7 7 7 8 8 8 9 10 10 9 11 10 10 10 12 13 13 13 13 14 15 14 13 16 14 19 15 18 15 18 17 17 18 18 17 16 17 17 16 14 15 17 18 16 13
12 13 12 13 7 3 2 12 3 2 6 6 5 16 22 12 2 7 4 7 7 9 9 10 13 13 12 11 12 13 12 9 9 9 7 6 5 5 4 2 2 2 3 3 3 2 3 5 4 4 5 5 7 8 7 8 8 8 9 10 10 9 10 10 12 12 13 13 12 12 14 14 15 18 14 14 20 14 18 14 18 16 18 17 18 18 18 17 17 16 19 12 14 18 18 15 13
Wind_Direction
358 2 244 125 78 111 63 360 122 338 59 12 324 13 175 44 194 77 210 333 80 24 5 44 52 37 96 140 121 120 50 109 285 127 195 265 331 321 351 344 340 351 359 360 1 1 5 9 15 19 22 21 19 20 18 16 12 1 330 308 297 269 247 247 260 265 266 278 284 285 278 271 271 274 278 288 286 268 255 253 253 256 257 257 261 265 267 268 272 275 276 277 276 273 274 277 279
49 29 52 311 24 72 266 125 103 1 39 71 241 85 215 284 76 196 192 190 186 101 88 79 74 83 102 120 138 100 44 30 9 86 128 313 277 13 346 344 343 1 357 4 7 10 15 16 22 23 23 21 21 20 22 19 19 17 18 5 339 324 314 301 273 263 277 269 272 278 278 282 289 273 262 263 265 267 262 260 258 251 249 256 261 262 269 273 272 272 272 271 272 272 273 273 273
6 59 38 20 34 71 100 38 279 41 87 82 278 207 331 109 203 218 222 140 106 136 111 95 94 71 41 178 51 36 151 44 24 3 89 346 26 333 335 331 340 356 1 2 9 12 17 19 26 29 29 28 25 22 21 19 16 19 21 21 16 5 348 326 324 316 291 264 267 270 271 280 289 303 288 274 272 268 268 262 263 259 256 256 261 265 270 273 277 278 278 275 273 272 269 271 270
84 32 129 53 324 26 57 29 84 125 115 200 294 285 167 179 227 205 232 219 230 162 138 36 55 304 101 63 126 37 47 32 359 294 41 358 4 286 307 322 333 352 9 10 10 14 15 19 28 33 33 32 30 28 26 24 22 21 20 21 23 20 16 8 351 336 318 314 301 278 274 279 277 258 272 274 273 287 286 283 274 267 270 267 264 270 274 277 277 278 278 278 277 275 271 266 270
60 29 84 101 109 1 105 131 138 104 114 199 167 271 254 208 215 230 311 323 355 183 113 130 83 339 84 99 31 101 249 293 4 18 102 311 319 289 294 321 350 19 18 9 12 13 12 20 28 31 34 34 33 31 29 26 25 23 22 21 20 18 17 16 13 5 358 347 331 322 316 305 294 282 275 275 273 263 263 276 287 283 272 267 270 275 279 282 283 280 278 275 275 274 277 279 270
63 55 14 102 300 151 55 68 47 87 225 145 114 228 217 217 193 201 97 48 22 63 98 80 152 178 34 39 34 82 272 90 190 43 130 8 316 312 309 335 21 31 15 13 12 16 14 21 29 29 33 32 32 31 29 27 27 23 22 21 19 18 16 14 13 10 7 2 356 346 328 319 315 312 306 301 284 259 264 269 273 278 273 263 262 265 269 276 280 282 280 278 275 272 268 276 280
237 48 355 22 32 52 174 120 176 168 239 157 190 229 205 218 221 123 140 52 30 49 347 109 120 106 85 174 57 90 197 259 73 344 76 281 314 324 344 20 37 31 16 13 11 14 14 24 26 28 30 32 31 30 29 27 25 24 21 20 19 18 17 15 14 10 7 5 2 356 349 339 325 316 307 305 308 300 286 272 269 277 282 279 275 270 275 281 280 279 278 277 276 276 280 270 272
52 121 290 114 287 50 56 167 160 165 352 183 185 149 230 237 170 143 142 109 209 79 72 120 150 95 306 132 132 237 16 31 40 334 308 309 289 346 20 24 38 25 17 12 13 15 15 23 25 28 29 31 30 30 28 28 26 24 21 20 19 16 14 14 12 10 10 7 3 0 356 352 345 332 320 314 304 296 295 289 277 261 259 264 272 275 276 280 284 280 282 281 279 278 266 270 266
1 90 335 72 52 30 65 81 306 213 292 267 282 239 279 196 153 125 43 29 100 63 146 182 183 72 184 75 116 232 329 359 340 289 295 332 0 9 27 25 36 20 13 13 12 12 18 21 26 27 28 30 30 29 29 27 26 24 22 19 18 16 15 12 11 10 9 7 5 3 0 356 353 350 341 326 313 306 297 298 298 287 276 272 267 266 268 274 280 285 281 278 282 280 269 267 266
58 70 264 122 133 63 33 321 92 196 217 253 218 359 193 204 122 95 134 44 141 109 318 262 199 123 136 113 118 353 322 344 315 4 356 358 2 4 32 25 29 24 19 15 15 13 17 18 24 26 28 30 30 29 27 25 24 23 21 20 17 14 13 12 11 10 8 6 6 4 1 359 357 352 348 345 337 326 315 307 300 301 296 291 285 280 278 272 276 281 283 282 281 287 285 268 265
233 14 133 73 39 111 144 217 282 319 299 324 313 248 232 141 114 72 96 139 208 132 177 89 59 127 114 133 167 231 21 3 24 15 331 343 341 1 35 24 20 23 24 18 16 20 17 19 20 25 27 29 31 30 27 23 21 20 19 19 17 16 13 10 10 10 8 7 8 5 2 359 357 354 352 347 345 341 334 321 313 302 293 296 298 291 282 278 275 274 277 279 276 269 269 266 261
304 34 360 102 126 153 214 154 219 245 304 344 128 312 210 140 116 106 127 113 130 141 178 73 175 148 90 118 232 237 353 1 323 308 315 324 335 353 35 28 23 19 25 19 19 25 21 20 22 18 24 26 32 30 28 25 23 19 18 16 15 15 14 12 11 8 7 8 7 5 3 1 358 356 352 349 345 342 339 337 331 320 309 299 290 290 288 284 281 280 279 277 275 270 265 263 259
99 93 80 76 175 118 158 113 202 260 340 297 176 68 213 60 147 140 125 97 94 148 261 262 152 94 128 180 242 356 29 288 309 326 303 307 324 358 25 34 20 29 22 20 31 23 23 22 21 20 18 26 27 27 24 23 22 21 19 16 14 13 11 11 12 10 8 7 5 3 2 3 2 359 357 352 348 345 340 335 332 328 323 313 305 298 293 291 287 281 278 274 272 269 265 262 259
112 181 120 129 49 119 129 169 30 153 264 232 279 284 23 80 266 167 128 97 283 139 182 330 126 127 90 76 235 220 235 258 292 300 297 293 298 33 36 12 25 24 21 25 28 22 22 20 19 20 20 23 26 25 20 16 18 20 19 18 15 13 11 10 9 9 9 8 6 2 2 3 2 1 360 358 355 350 347 342 335 328 324 320 315 309 303 295 289 284 272 269 269 264 262 261 259
109 148 84 116 32 54 217 118 193 148 209 190 255 71 53 21 113 80 139 127 229 241 301 14 148 94 211 152 222 199 209 227 268 284 300 288 347 44 34 20 25 24 20 23 22 20 18 16 17 18 23 22 23 23 20 11 14 17 17 17 16 14 12 10 9 7 5 4 4 3 2 3 1 360 359 359 355 352 349 346 342 339 329 322 319 316 310 304 294 285 280 273 267 266 261 259 257
145 86 86 97 2 118 237 99 42 115 237 174 314 128 85 348 27 87 299 204 157 341 29 194 3 204 151 155 201 166 169 187 268 285 283 308 8 37 36 23 19 19 19 18 20 18 12 17 15 18 19 18 18 16 13 12 8 14 12 13 13 13 11 10 8 5 2 0 0 357 360 4 1 357 356 356 354 355 351 351 349 347 343 336 330 320 314 308 304 295 285 273 269 264 259 258 257
54 81 51 34 118 106 215 142 149 199 239 258 251 222 113 308 324 84 23 43 97 18 37 342 280 12 85 140 134 121 127 296 334 303 250 24 26 29 22 25 9 19 12 16 21 10 10 19 15 19 12 10 8 7 6 6 2 7 8 9 9 10 7 6 5 2 359 359 358 355 358 1 358 356 355 354 353 353 352 351 348 348 349 348 344 338 331 321 313 308 293 285 276 270 268 261 257
56 65 118 49 170 114 200 170 189 215 143 248 214 175 117 168 232 199 66 42 69 60 57 347 31 38 43 43 73 67 37 44 331 199 68 50 28 28 28 9 16 12 8 5 9 11 12 15 12 12 8 4 4 2 358 357 355 359 1 4 6 5 2 3 2 1 358 358 355 355 358 357 355 351 349 351 353 350 348 348 347 347 346 346 342 339 336 330 324 313 305 298 291 283 269 260 260
89 113 83 188 193 220 145 206 199 129 242 199 150 168 146 206 150 193 88 206 140 73 10 12 39 10 28 48 47 65 47 24 106 109 77 63 42 43 27 1 17 7 15 8 1 6 12 9 7 6 1 0 2 359 354 349 351 351 352 357 358 0 0 2 359 357 358 355 354 353 354 351 350 349 348 345 346 346 347 346 346 346 344 343 340 337 337 336 334 328 316 304 298 283 272 267 257
218 110 76 253 203 212 205 185 196 219 161 173 177 193 138 179 146 142 165 179 186 164 152 289 201 179 199 193 138 130 92 126 96 88 82 73 52 49 28 21 13 16 2 2 347 350 4 6 355 357 355 352 1 353 351 348 349 349 346 350 352 353 356 357 357 357 354 353 351 350 351 347 345 343 341 345 347 346 344 343 344 343 342 340 337 336 339 337 334 329 325 315 302 295 279 271 262
270 69 145 207 190 126 237 172 231 225 168 175 149 139 116 241 191 157 151 118 253 253 213 165 184 185 181 189 187 171 176 123 76 75 84 68 39 15 20 4 346 314 327 325 357 341 347 353 350 348 344 347 353 346 346 344 344 343 342 344 346 346 347 351 353 354 352 351 349 347 344 345 342 340 340 340 345 343 341 339 341 343 340 336 337 338 337 331 331 330 329 325 312 297 282 272 265
124 338 190 145 126 93 228 208 181 150 81 127 114 142 200 111 61 156 159 183 212 212 206 230 175 164 164 168 182 177 164 116 104 95 115 133 128 138 335 332 322 324 334 9 325 328 333 334 341 333 333 333 337 330 326 325 336 343 345 343 345 344 349 348 348 352 350 349 346 344 342 342 341 339 338 339 338 340 339 337 337 336 336 333 335 334 330 327 329 331 330 329 326 316 297 275 263
1 318 13 231 190 154 235 189 216 138 138 163 151 205 90 148 192 235 194 205 268 289 180 157 149 153 155 146 151 154 143 130 137 147 160 158 180 206 251 270 1 335 330 308 311 310 316 328 327 327 323 322 325 319 313 319 332 328 333 332 349 342 351 353 355 353 350 344 344 344 345 342 339 337 335 335 335 336 332 334 332 332 329 328 330 327 324 325 328 330 330 327 323 319 316 302 283
125 234 22 277 228 169 172 208 151 179 133 206 192 122 145 147 203 176 209 300 303 29 109 127 128 135 145 148 173 155 153 153 166 172 164 149 143 158 229 260 265 290 340 307 322 315 314 319 317 334 322 331 321 325 326 331 331 337 334 339 345 336 353 352 348 348 343 347 347 343 343 337 334 335 333 331 331 330 328 326 326 324 323 321 320 319 318 322 325 326 325 322 322 319 314 313 305
107 322 198 282 106 264 257 258 182 180 229 61 108 150 251 198 197 114 236 203 133 101 113 120 132 140 155 153 157 156 157 179 178 201 228 245 198 283 303 241 283 354 328 312 309 328 318 312 330 328 326 326 317 320 319 318 319 323 327 333 335 331 347 339 335 336 346 341 338 340 342 339 336 331 328 327 325 326 323 323 323 320 319 315 316 312 314 316 319 320 320 318 317 314 313 311 310
132 241 26 283 255 258 267 294 241 207 174 80 102 34 289 209 178 206 203 180 166 137 115 133 140 147 161 166 165 165 173 182 191 188 209 215 273 26 347 332 338 346 266 286 307 302 304 318 324 313 309 305 304 312 303 312 310 317 321 328 317 330 326 322 328 345 340 343 339 338 332 325 323 325 323 321 324 321 323 320 319 317 316 314 310 309 308 309 312 315 314 315 315 315 312 310 310
164 260 219 271 277 352 196 197 225 214 228 160 206 302 275 240 135 273 189 187 157 134 142 154 152 165 172 171 176 184 169 188 186 188 102 283 305 170 301 331 299 251 306 290 286 286 295 318 307 302 292 299 299 299 299 307 312 325 329 327 332 338 332 335 340 340 342 343 337 332 331 328 323 319 320 319 320 319 319 319 317 316 312 310 308 302 303 301 302 303 308 310 312 312 309 308 307
327 237 308 293 331 247 270 192 226 128 235 137 143 325 295 277 86 237 172 173 167 152 167 172 183 180 178 180 180 189 188 198 189 133 171 169 184 195 214 181 230 264 241 267 259 267 294 290 290 296 293 304 309 305 310 317 328 329 325 325 331 328 333 334 337 340 341 336 333 332 330 328 325 320 316 318 317 317 316 316 313 313 310 308 305 302 301 299 296 291 294 297 300 303 305 305 303
323 32 343 307 357 23 335 203 222 169 254 141 156 72 260 200 231 265 160 146 159 162 174 188 192 199 192 187 191 191 202 195 193 178 191 198 200 194 176 204 195 225 239 229 257 278 293 291 295 300 314 321 314 308 310 309 312 317 315 319 321 334 334 339 343 339 331 323 316 310 308 308 312 314 317 316 317 316 315 314 312 308 304 302 303 301 299 299 296 295 290 292 295 299 301 306 304
272 36 52 340 358 354 344 313 25 144 266 155 234 288 236 227 233 253 154 152 144 166 194 197 199 199 199 195 196 204 220 210 203 202 200 208 204 190 183 214 202 206 247 269 312 322 300 285 284 307 329 325 310 303 308 312 311 310 313 311 331 343 351 355 350 347 344 339 336 329 326 324 324 322 320 318 315 315 314 311 310 308 305 304 298 300 301 299 296 297 296 295 292 295 300 303 307
132 264 67 69 355 294 263 60 346 161 314 162 61 227 277 241 263 185 170 164 166 187 195 199 199 198 198 203 201 201 213 207 196 202 218 215 212 195 189 234 239 236 263 299 312 284 298 301 311 326 315 309 310 312 310 309 311 315 313 326 347 355 354 360 350 346 343 338 339 341 340 343 338 332 327 324 324 326 326 322 317 311 307 300 300 297 293 296 297 290 295 296 293 290 290 293 299
23 40 295 319 84 276 299 272 185 201 350 142 120 268 255 278 270 172 173 178 180 194 196 199 199 197 200 201 205 202 210 215 226 225 225 223 210 204 193 210 227 254 246 269 287 312 315 310 317 316 309 308 309 302 302 299 305 304 305 341 359 8 7 3 359 354 344 346 350 345 348 342 335 335 336 340 336 332 326 320 317 316 314 307 297 291 289 287 289 292 286 285 295 293 293 292 292
346 79 262 275 17 269 337 8 313 295 119 246 173 246 307 291 294 165 181 179 195 203 203 205 203 201 199 203 202 203 208 229 235 235 232 221 232 215 201 208 227 230 255 274 291 309 310 305 315 307 299 300 297 302 300 294 288 278 307 9 19 15 12 1 360 352 349 352 350 344 340 335 337 341 342 340 331 325 319 314 313 315 313 309 303 296 286 280 280 282 288 282 276 287 291 292 294
312 14 238 208 261 300 290 296 16 2 168 226 272 242 252 251 265 185 198 197 195 215 215 211 205 200 203 201 204 203 204 201 208 210 218 213 216 230 222 204 216 263 264 282 279 266 269 286 284 276 278 283 277 281 283 282 280 303 11 16 15 12 6 359 350 349 352 346 342 341 337 340 341 340 336 331 324 320 316 312 311 312 312 310 303 297 291 285 277 272 278 283 279 278 284 290 293
255 298 330 312 271 205 247 286 261 53 203 217 270 245 268 272 248 201 203 201 205 217 215 209 204 201 204 204 206 208 204 204 209 202 202 206 223 238 232 211 286 323 306 299 297 283 283 281 279 279 285 290 286 276 274 265 280 16 30 22 13 10 359 350 338 344 348 340 339 338 343 344 338 337 333 330 329 324 318 314 311 312 313 310 308 302 295 289 282 275 271 274 279 273 275 281 285
222 208 222 232 291 277 221 233 270 174 277 266 218 241 265 273 272 229 208 204 210 226 231 231 212 212 208 208 209 206 207 211 208 200 201 207 218 234 242 279 339 320 298 295 288 286 275 280 271 277 279 283 275 279 267 282 5 16 9 2 9 2 344 340 341 345 342 342 340 343 345 339 337 332 330 331 327 324 322 318 315 316 313 310 306 304 300 293 286 282 276 273 272 279 274 272 278
102 110 179 256 240 281 277 239 255 155 282 247 242 239 254 268 266 257 210 197 228 234 233 225 217 211 210 210 208 206 206 204 200 200 194 204 224 247 267 13 346 328 282 276 288 274 251 250 269 291 279 272 273 276 302 4 9 5 5 8 353 340 333 338 343 345 340 334 334 338 334 336 332 331 330 328 321 317 311 307 306 304 304 302 301 298 299 296 288 279 278 273 271 270 276 272 264
185 223 229 278 203 260 271 295 38 290 168 287 187 224 253 260 270 262 183 181 225 218 227 228 221 215 215 209 205 207 206 220 190 199 226 237 248 252 269 252 108 181 258 278 264 258 258 267 261 273 278 270 281 314 359 13 27 11 331 303 311 304 318 333 335 328 318 321 333 331 331 328 327 327 321 318 309 304 306 306 304 303 304 299 294 293 295 291 287 278 274 274 261 262 264 267 267
122 209 232 303 269 244 281 298 351 312 137 260 280 265 258 259 264 266 187 206 223 215 214 220 210 215 217 210 206 201 197 203 187 197 202 213 233 250 250 254 247 216 247 253 253 270 279 274 266 265 262 275 297 320 15 0 352 343 330 296 317 303 256 259 273 277 280 289 301 299 310 313 317 315 316 317 315 314 310 307 303 300 295 299 298 296 295 293 288 281 270 266 273 258 261 258 256
173 189 237 249 230 15 306 293 11 330 166 291 284 281 273 257 255 260 240 207 231 225 225 231 214 219 214 209 197 195 199 193 192 191 199 210 211 239 277 265 238 246 257 261 262 270 270 262 265 270 274 289 309 326 359 332 303 293 272 263 277 256 287 292 271 268 263 278 287 291 299 319 322 320 323 322 317 314 310 304 301 297 296 297 300 298 293 288 286 280 274 265 261 269 261 263 224
258 193 213 257 276 246 195 269 329 299 305 326 315 286 263 220 242 263 319 290 269 245 238 240 238 236 230 213 211 207 200 192 188 191 197 197 215 219 205 222 254 255 247 245 257 265 261 272 268 269 281 298 299 309 333 322 317 311 310 303 268 289 263 271 274 247 238 286 303 317 327 329 321 314 312 308 307 304 301 295 295 301 307 309 304 296 292 287 282 279 277 272 261 261 266 264 255
313 223 199 224 236 270 281 336 360 2 325 343 35 325 261 282 216 255 269 331 253 233 231 236 229 223 201 210 210 198 212 204 187 185 183 191 193 214 252 250 244 243 245 243 237 257 265 271 270 275 284 288 294 299 321 329 332 331 343 352 348 347 334 340 336 330 328 331 325 315 313 320 320 316 312 309 302 299 298 304 307 307 302 300 297 291 291 298 300 297 283 272 263 252 259 266 267
54 272 184 222 236 243 287 324 26 304 241 266 52 175 285 126 220 245 259 244 260 242 230 243 230 223 213 218 203 196 196 195 201 178 169 175 207 210 239 235 230 232 247 247 266 261 267 266 261 267 279 288 294 303 320 325 328 334 336 323 300 300 302 290 276 289 295 302 304 305 303 305 313 316 315 313 310 306 305 300 296 293 292 291 292 293 291 290 291 294 298 285 271 261 254 259 256
235 240 126 109 126 248 257 98 168 251 214 257 186 185 272 290 228 234 252 255 269 274 252 244 234 223 220 216 200 196 196 189 178 178 179 194 193 194 205 220 222 223 241 268 260 260 267 277 284 288 285 287 289 295 313 318 316 317 318 311 303 299 293 292 298 292 291 297 306 310 314 311 311 312 312 312 308 304 301 299 296 291 290 288 287 284 286 287 288 289 290 291 287 272 256 253 255
221 202 105 95 115 203 139 357 275 254 3 293 160 142 281 257 272 345 36 261 262 261 263 255 230 225 224 211 200 199 193 182 171 176 186 190 200 211 214 229 231 243 251 244 247 259 273 281 290 287 286 293 296 301 307 307 300 301 299 298 299 285 284 289 295 293 295 298 300 309 312 314 313 312 308 306 301 298 298 298 299 294 288 282 279 281 280 281 285 289 288 289 291 287 273 257 252
280 130 92 78 68 64 50 86 6 328 53 279 213 174 203 278 169 193 0 246 266 255 255 257 240 223 216 204 199 195 183 179 181 179 181 191 203 210 215 221 252 239 237 242 260 276 281 296 300 303 307 307 301 301 299 299 299 304 304 302 293 296 293 293 295 300 302 307 304 306 309 310 312 310 308 299 294 293 294 294 293 294 289 286 284 283 286 285 283 280 282 285 287 289 288 274 254
117 81 77 0 37 30 35 62 89 42 277 261 230 181 171 279 194 180 149 211 206 241 263 268 251 223 204 201 197 192 183 180 178 180 186 196 207 218 230 232 236 258 249 253 275 280 292 301 304 307 302 306 302 293 295 293 301 298 295 290 287 289 297 299 306 305 307 309 309 309 309 306 305 304 307 302 291 289 291 295 298 297 295 292 289 290 286 282 275 277 282 284 283 284 284 283 272
110 61 82 360 336 8 38 342 45 118 267 260 265 176 187 213 290 201 228 275 227 218 260 262 250 223 201 197 198 188 179 178 171 174 189 205 232 249 243 247 249 255 278 278 279 291 295 295 300 300 305 306 301 294 292 288 289 289 278 276 276 279 288 296 299 301 306 304 304 303 304 302 302 303 301 296 293 291 291 293 294 296 294 292 288 286 283 285 289 289 284 282 282 284 282 279 275
82 75 37 63 273 18 315 36 313 192 229 217 104 138 304 231 245 252 253 254 263 223 225 245 254 239 202 199 191 180 176 171 175 179 183 196 202 212 222 241 262 271 262 271 276 280 281 285 291 301 303 311 303 294 284 282 285 280 276 274 274 281 287 290 293 294 297 299 301 301 303 300 302 302 301 298 295 296 296 295 297 294 292 290 289 286 285 288 290 286 282 282 280 280 282 283 279
121 154 148 90 354 44 267 262 236 294 271 235 105 95 251 276 277 225 239 244 247 265 239 258 255 221 199 194 180 173 179 180 178 179 187 193 201 214 216 225 248 265 267 263 268 273 278 288 302 300 298 307 299 299 295 291 284 281 278 275 277 280 284 287 288 291 293 290 290 289 291 292 296 293 295 292 296 297 294 292 291 291 289 287 287 286 286 285 285 283 282 282 282 284 284 283 279
200 131 146 180 147 165 259 234 246 271 285 289 220 64 242 357 234 239 226 269 313 255 269 270 258 226 202 181 164 164 176 186 180 183 190 195 207 204 208 224 236 244 250 255 255 259 275 297 307 307 304 302 305 303 297 287 284 280 278 272 273 278 284 287 285 285 288 290 286 282 281 284 284 289 288 292 294 294 293 292 292 289 288 286 286 286 285 283 280 280 282 285 282 280 286 287 283
147 174 77 86 223 124 209 207 234 314 340 309 152 212 193 223 130 209 245 300 295 326 307 309 213 129 136 149 174 184 184 184 186 189 197 209 207 209 215 228 235 236 244 253 255 257 280 292 302 294 289 295 304 296 284 278 276 273 273 280 280 283 285 287 286 282 282 282 285 284 284 282 281 284 287 288 287 288 291 291 288 287 286 284 283 282 280 280 278 279 283 280 277 281 285 288 289
209 108 208 208 174 139 341 339 27 87 68 265 128 278 265 321 273 186 216 281 276 305 280 232 204 177 169 188 187 188 188 185 187 191 196 204 213 218 218 224 231 235 245 250 254 246 268 297 299 296 296 300 286 276 270 271 274 278 283 281 284 286 286 286 288 289 286 283 279 279 280 281 282 282 283 284 286 287 288 289 290 289 286 284 283 281 278 274 274 278 279 276 278 284 282 285 288
99 192 231 167 143 117 127 219 324 62 220 269 17 279 291 333 298 95 331 260 258 256 240 205 213 196 200 205 194 189 191 192 188 197 202 204 202 210 221 223 224 230 236 254 257 245 263 269 274 287 296 290 282 275 279 285 292 293 292 292 292 290 293 291 288 288 287 286 282 281 281 282 283 285 284 285 285 287 288 290 287 286 285 282 280 279 278 281 283 278 272 267 273 278 278 280 281
145 186 244 134 233 198 325 85 276 228 255 273 267 289 271 260 267 79 252 222 243 244 203 186 209 215 217 204 198 193 186 189 197 201 207 213 215 222 221 222 224 223 239 244 257 274 272 267 269 267 271 270 274 282 288 290 287 291 290 293 296 297 293 291 290 288 289 287 286 285 283 282 284 284 286 285 288 288 289 289 288 287 284 282 278 277 278 278 277 274 274 277 280 277 276 277 279
75 77 42 65 105 174 127 205 196 120 257 311 284 326 279 268 187 194 235 207 225 235 178 211 210 212 209 199 194 190 195 198 192 197 205 211 218 221 217 218 223 227 228 231 247 255 258 269 273 269 264 265 281 289 293 295 294 291 296 296 294 292 294 295 295 296 293 291 289 289 287 285 284 288 288 287 286 283 285 285 287 284 283 280 277 276 275 273 274 274 282 283 283 287 284 280 281
173 179 249 347 191 225 115 298 164 171 224 219 301 296 282 273 171 170 219 196 215 213 212 206 215 219 207 200 191 194 196 192 192 194 202 213 221 227 234 224 222 226 216 235 238 242 261 263 257 260 281 299 304 303 303 300 302 299 302 303 305 309 306 302 298 295 294 292 292 289 287 286 289 283 286 286 286 285 285 284 281 283 280 277 277 274 274 274 272 274 279 283 285 282 278 272 271
182 183 206 189 158 208 190 258 102 200 227 238 162 257 272 262 198 151 185 212 210 225 201 201 219 219 199 196 198 193 192 194 188 195 202 208 220 232 233 231 223 207 233 241 246 253 259 247 253 286 299 300 303 303 300 300 301 300 302 305 307 306 302 303 302 301 297 296 292 291 292 290 289 289 287 287 287 286 284 280 281 279 279 278 277 273 272 271 272 275 277 280 280 273 272 277 277